Location: Unspecified
(19.4326°N, 99.1332°W)
Time: 09:52:24
(UTC-05:00)

ISS - Visible Passes

Search period start: 20 April 2018 00:00
Search period end: 30 April 2018 00:00
Orbit: 403 x 406 km, 51.6° (Epoch: 20 April)

Date Brightness Start Highest point End Pass type
(mag) Time Alt. Az. Time Alt. Az. Time Alt. Az.
25 Apr -1.2 06:23:07 10° SSE 06:25:21 17° SE 06:27:36 10° E visible
27 Apr -3.6 06:14:44 17° SSW 06:17:03 66° SE 06:20:15 10° NE visible
28 Apr -1.8 05:25:04 23° ESE 05:25:04 23° ESE 05:27:29 10° ENE visible
29 Apr -2.8 06:07:57 26° W 06:08:47 30° NW 06:11:42 10° NNE visible
